Wind_Speed
15 17 17 17 16 14 15 16 18 19 19 19 20 23 27 29 31 32 36 41 43 42 40 38 35 31 29 29 27 26 27 33 37 38 36 35 34 25 11 14 22 22 21 19 18 17 17 18 19 18 18 18 16 14 14 15 15 14 13 13 10 9 8 8 7 7 7 7 7 7 7 8 8 8 7 6 5 5 4 3 1 1 3 3 2
13 13 14 14 13 12 13 15 18 19 20 19 18 20 26 29 30 30 33 38 42 41 39 37 36 35 33 31 28 27 29 32 36 39 39 36 34 33 26 13 12 21 23 22 21 20 20 20 20 19 18 19 19 17 16 16 17 17 16 15 13 11 10 9 8 8 9 9 9 8 8 8 8 9 9 8 7 7 6 5 4 3 4 4 3
11 13 14 14 14 14 15 16 19 21 22 21 18 19 25 28 29 29 30 35 39 39 37 35 36 37 36 34 32 31 32 33 35 38 40 39 36 33 30 25 14 11 18 23 24 23 23 22 22 22 20 19 19 19 19 18 19 19 18 17 16 14 13 11 9 8 9 9 10 10 10 10 9 10 10 10 10 9 8 7 6 5 5 5 5
13 14 15 15 15 15 17 19 20 22 23 23 19 18 25 28 28 27 27 31 36 37 35 32 31 33 34 33 34 35 35 36 37 39 40 40 38 36 32 28 24 17 11 17 24 27 26 26 26 25 24 23 21 20 20 21 21 21 20 18 18 17 14 12 11 10 10 9 10 11 11 11 11 11 11 11 11 11 10 9 9 7 6 6 6
14 15 15 15 15 16 18 19 21 22 23 23 20 20 25 27 27 27 26 27 32 36 35 31 27 27 29 30 32 34 35 36 38 39 40 41 40 39 36 31 27 25 20 12 17 25 30 30 29 29 28 27 25 24 22 22 23 23 22 21 21 20 16 14 13 12 13 12 11 11 12 12 13 13 12 12 12 12 12 11 11 9 8 7 7
14 14 15 15 16 17 18 19 20 21 23 23 22 23 26 27 26 27 26 26 29 34 35 33 29 24 25 27 29 31 33 35 36 38 40 41 41 40 39 35 29 26 25 20 14 16 26 33 34 33 31 30 30 28 25 24 24 25 24 24 23 21 19 17 16 15 14 15 16 15 13 12 13 14 14 14 13 13 14 13 12 11 10 9 8
14 14 14 15 16 17 18 19 20 21 21 22 23 25 26 25 26 26 26 26 28 32 35 35 32 27 24 23 26 28 30 32 34 36 38 40 42 42 41 38 32 27 26 25 22 16 14 24 34 37 35 33 33 32 29 26 25 25 25 25 25 23 21 20 20 18 16 16 18 18 15 13 12 13 15 16 15 14 15 15 15 13 12 11 9
13 13 14 16 17 18 20 20 21 20 21 22 23 23 24 24 24 25 27 27 28 32 36 36 33 30 27 24 24 26 28 30 31 33 36 38 40 42 42 41 37 30 26 26 25 23 19 14 21 33 39 38 36 35 33 29 26 25 25 25 25 25 24 23 23 23 20 18 18 18 17 16 14 14 15 16 17 16 16 16 16 16 15 13 11
14 14 16 17 19 21 22 22 21 19 19 21 22 22 21 21 22 23 26 27 29 33 37 37 35 32 31 28 25 24 26 28 30 31 33 35 38 41 42 43 42 37 30 26 25 25 24 21 15 18 31 39 40 38 36 33 30 28 27 26 26 28 28 26 26 26 24 22 21 20 19 18 18 16 15 17 18 19 18 17 17 18 17 15 14
16 17 18 19 20 21 22 22 21 19 18 20 21 20 20 20 20 22 24 27 30 34 37 37 36 34 32 31 28 25 25 27 29 30 31 32 35 38 41 42 43 42 38 32 28 24 24 24 23 18 15 26 38 42 40 37 35 33 31 31 30 30 30 28 27 28 28 27 25 25 23 21 21 19 18 18 18 20 20 19 19 19 19 18 16
17 18 18 19 19 20 22 21 20 20 19 18 17 17 17 19 19 20 22 26 30 34 37 37 37 35 32 31 30 28 26 26 28 29 30 31 32 35 38 41 42 43 42 40 35 29 25 24 25 25 21 14 21 35 42 42 40 37 34 33 33 33 32 30 29 28 30 31 28 27 26 25 24 22 20 19 19 20 21 22 21 20 20 20 19
17 18 18 18 18 19 20 20 20 19 17 14 14 14 15 17 18 18 20 24 29 34 37 38 37 36 33 31 30 30 28 27 27 29 30 31 31 33 35 38 40 42 43 43 41 36 30 26 25 26 26 22 15 17 31 40 43 41 38 36 35 35 34 33 32 30 32 34 31 28 27 28 27 24 22 21 21 21 22 24 23 22 22 22 22
16 17 18 18 19 19 19 18 18 17 14 11 11 12 14 15 17 18 20 23 27 33 36 37 37 36 34 32 30 30 29 28 28 29 30 31 31 32 32 35 37 40 42 43 43 41 37 31 26 25 27 26 23 16 14 26 37 42 42 40 38 37 36 36 35 33 33 35 35 31 29 30 30 28 25 23 23 23 24 25 26 25 24 23 23
16 17 18 20 21 21 20 19 17 14 12 10 9 11 13 15 17 19 20 23 27 32 35 36 36 35 34 32 31 31 30 29 29 29 30 32 33 32 32 32 34 37 40 42 42 42 41 38 31 25 26 28 27 24 18 14 22 34 41 42 41 39 38 38 37 36 36 37 38 36 34 33 32 31 28 25 24 25 26 25 27 27 26 25 25
17 18 19 21 23 22 21 19 17 14 12 11 11 12 15 17 18 20 21 24 27 31 33 34 34 35 34 33 31 30 30 30 30 30 31 32 33 34 33 32 32 34 37 40 42 42 41 41 37 30 26 26 27 27 24 20 14 20 32 39 42 42 41 40 40 39 39 40 40 39 38 37 36 34 32 29 27 26 27 27 28 29 29 27 26
18 19 21 22 23 22 20 18 16 15 13 13 13 15 17 19 21 22 23 25 27 29 31 32 33 33 33 32 31 30 30 30 31 31 32 33 34 35 35 33 32 32 34 38 40 41 41 41 40 36 30 25 24 26 27 25 20 15 18 29 38 42 42 42 42 41 40 41 42 41 40 40 39 38 36 34 32 29 29 30 30 31 31 30 28
18 20 21 22 21 19 17 17 17 17 16 15 15 17 19 22 23 24 25 26 27 28 30 31 32 32 32 31 30 30 29 29 30 31 32 34 35 36 37 35 33 31 32 35 38 40 41 41 40 39 36 30 23 22 24 25 24 21 16 16 26 36 41 42 43 43 42 41 42 43 42 42 42 41 39 37 36 34 32 31 32 33 33 32 30
19 21 22 22 21 18 17 17 18 19 18 17 18 19 20 22 25 26 26 26 27 28 29 30 31 31 30 30 30 29 29 28 29 30 32 34 35 36 37 38 36 33 31 33 36 39 40 40 40 40 39 35 29 22 19 20 23 24 22 18 16 24 34 41 43 43 43 42 42 43 44 43 43 44 42 40 40 39 37 35 33 33 35 34 33
21 23 24 24 23 22 21 20 21 21 19 18 18 19 20 22 25 26 26 26 26 28 30 31 31 30 30 30 30 29 28 28 29 30 32 33 35 35 36 38 38 35 33 32 34 37 39 40 41 40 40 38 34 28 20 17 19 21 23 23 20 18 23 33 41 44 44 43 43 44 45 45 44 44 45 44 43 41 40 39 36 34 35 36 36
22 24 25 26 25 25 24 23 22 22 21 19 18 19 21 23 25 26 26 26 26 28 30 31 31 30 30 30 30 29 28 28 29 31 33 33 34 35 35 37 37 36 34 33 33 36 38 39 40 41 41 40 38 33 26 19 16 17 19 21 22 21 19 23 32 41 45 45 44 45 46 46 45 44 46 47 46 44 43 42 40 38 37 37 37
23 25 26 26 27 27 25 23 22 23 22 21 21 22 25 27 29 29 28 28 28 28 31 33 32 32 31 31 30 29 29 30 31 32 33 33 33 34 36 37 37 37 35 34 34 36 38 39 40 41 41 41 40 37 31 24 18 15 15 16 18 20 21 21 24 31 40 46 47 47 47 49 48 46 46 49 50 48 46 45 44 42 41 39 39
24 25 26 27 28 27 24 22 23 24 25 25 26 28 29 31 32 32 31 30 30 31 34 36 36 35 33 31 31 30 30 31 33 34 34 34 34 35 36 36 37 37 36 35 35 36 38 39 40 41 42 42 42 41 37 30 24 19 14 13 13 15 17 19 21 25 31 40 46 49 49 50 52 52 49 49 52 52 50 49 48 47 46 44 42
25 25 27 28 28 26 23 22 23 26 29 30 31 31 31 33 35 35 33 32 31 33 37 38 38 37 35 33 33 33 31 32 34 36 36 36 36 36 35 35 36 38 37 36 36 36 38 40 41 41 41 42 42 43 41 37 33 28 21 17 15 14 14 15 17 21 26 32 39 46 50 52 54 56 55 52 52 53 54 54 52 51 50 49 46
26 26 27 28 28 27 25 24 26 29 31 31 31 32 34 36 37 37 36 35 34 37 40 40 39 39 39 38 37 35 34 34 36 37 37 37 38 37 35 34 36 38 39 38 37 36 37 40 42 42 42 41 41 43 43 40 40 38 32 28 23 18 14 14 14 17 20 25 31 38 46 51 54 58 61 58 55 54 56 57 56 55 54 53 51
27 27 28 29 29 29 27 27 28 33 34 32 33 35 37 38 38 38 39 38 38 39 40 40 39 40 42 42 40 38 37 38 39 39 39 39 39 38 35 35 37 39 41 41 38 36 36 38 41 43 43 42 41 41 42 40 41 43 42 38 35 28 21 16 15 15 16 19 23 30 37 45 51 56 61 63 61 58 57 59 60 59 58 57 56
28 29 29 30 31 31 31 31 33 37 39 38 38 38 38 38 37 38 39 39 39 40 41 41 41 42 43 44 43 42 42 43 44 43 41 41 40 38 37 39 41 42 43 43 40 38 36 36 39 43 45 44 41 41 41 39 40 43 46 45 43 40 34 26 20 17 17 18 19 23 28 35 44 51 57 63 65 63 61 60 62 63 62 61 60
29 31 32 33 34 34 34 36 39 42 43 42 40 37 35 35 37 39 40 40 39 40 42 43 44 45 45 45 46 45 45 46 46 45 42 42 42 41 41 45 48 47 45 44 42 39 37 37 38 41 45 45 42 42 42 39 39 41 45 48 49 47 43 38 32 25 20 20 21 21 24 28 35 43 51 58 63 65 65 64 64 65 66 65 64
31 33 35 36 38 37 38 40 44 45 44 43 42 39 37 37 39 43 43 41 40 41 43 44 45 46 47 48 48 47 47 49 49 47 44 43 43 44 48 52 52 50 48 46 44 40 38 38 39 40 44 46 44 43 42 39 38 39 42 48 52 52 49 47 43 37 28 24 24 24 25 26 29 35 44 53 60 63 66 67 67 68 69 69 68
34 36 37 38 39 39 40 42 45 46 46 44 42 42 42 42 45 45 43 41 41 41 43 45 46 47 48 49 49 49 49 50 49 47 45 46 48 51 54 56 54 52 50 49 46 42 39 39 40 40 42 45 46 46 44 40 37 39 42 46 51 53 54 52 49 47 41 34 30 29 28 28 29 31 37 45 52 58 62 66 69 70 72 73 73
35 37 38 39 40 41 42 44 46 46 46 45 43 44 46 46 46 45 43 42 42 41 43 46 48 49 50 51 50 50 50 51 50 50 50 53 55 57 58 57 55 53 51 49 48 44 39 38 41 42 42 45 47 48 48 44 39 39 42 44 47 50 53 55 54 52 50 45 41 37 33 32 31 32 35 39 45 52 58 62 66 70 74 76 77
35 37 38 40 42 43 44 45 47 47 47 46 47 48 48 47 45 43 43 44 45 45 47 48 50 52 52 51 51 52 53 54 56 57 58 59 60 60 60 58 56 54 52 50 47 44 40 39 41 43 43 45 47 49 51 49 44 42 43 44 46 48 50 54 55 56 56 54 51 48 42 39 37 35 35 39 43 47 52 57 62 68 73 78 80
36 37 39 41 43 45 46 48 49 49 49 49 49 49 48 46 44 43 45 47 49 50 51 52 53 54 54 54 54 55 57 59 61 61 62 61 61 60 59 58 56 54 52 49 46 43 42 42 43 43 44 46 47 49 51 52 50 47 46 46 47 48 50 52 54 57 60 60 60 57 53 49 45 40 38 39 43 46 48 52 58 63 70 78 83
38 39 41 42 43 45 47 49 50 51 50 50 50 48 46 44 43 44 47 49 51 53 54 55 56 56 57 58 58 59 60 60 61 61 61 60 60 60 58 57 55 54 51 48 45 44 43 44 44 44 45 46 47 48 50 53 55 54 54 53 50 49 51 52 54 58 61 63 65 65 62 59 55 49 44 41 42 45 47 49 53 58 64 73 84
40 41 42 43 45 46 47 49 50 51 51 51 50 48 46 44 45 47 49 51 52 54 56 57 58 59 59 60 61 61 62 62 61 61 61 60 60 60 59 57 55 53 50 47 45 44 43 44 44 45 46 47 48 49 51 53 56 58 60 60 56 52 51 53 55 59 62 64 68 69 69 66 62 57 52 48 43 43 44 46 49 54 59 66 78
41 42 43 44 45 47 48 50 51 50 50 51 50 50 48 48 49 50 52 53 54 55 57 58 60 60 61 62 63 64 64 64 64 63 63 62 61 60 59 57 54 51 48 46 44 44 44 43 44 46 49 51 52 54 55 55 57 60 63 65 62 57 55 56 58 60 62 65 69 71 72 71 68 64 59 55 49 45 44 45 47 52 56 61 70
43 44 45 46 47 48 49 50 51 50 50 50 50 51 51 51 52 53 54 55 57 58 59 60 61 62 63 64 65 66 66 66 66 65 65 64 63 62 61 58 55 51 48 46 43 42 44 45 47 50 54 57 59 60 60 59 60 63 66 66 65 63 62 62 61 61 64 68 70 71 73 74 73 71 67 61 55 50 48 48 49 51 54 58 65
45 46 48 49 49 50 50 51 50 49 48 50 50 51 52 53 54 55 56 58 59 60 61 61 62 63 64 65 66 67 68 68 69 68 68 67 66 64 62 59 57 53 49 46 44 43 45 47 49 52 57 60 61 62 63 63 64 67 68 68 68 67 66 64 63 64 68 71 72 73 74 76 76 76 73 67 60 56 54 54 54 53 53 56 62
48 49 51 52 53 54 54 54 51 47 47 50 51 51 52 53 55 56 58 60 61 62 63 63 63 64 65 66 67 67 68 69 70 69 68 68 67 66 64 60 58 55 50 47 46 45 46 48 50 53 57 60 62 64 66 67 69 70 71 71 72 71 69 68 68 70 72 73 74 75 76 78 79 79 76 71 66 62 60 59 57 56 55 55 60
49 50 52 55 56 57 57 56 51 46 48 52 52 52 52 53 55 57 60 61 63 64 65 65 66 66 67 67 67 68 68 69 70 70 69 68 68 68 65 60 58 56 53 51 47 45 47 50 53 56 58 61 64 66 69 71 72 73 73 74 74 74 73 73 73 74 75 76 76 77 79 80 81 80 77 74 71 68 66 64 60 57 56 56 58
50 51 53 55 57 60 59 55 52 51 53 55 55 54 54 53 55 57 60 62 64 65 66 66 67 68 68 68 68 68 69 69 69 69 68 68 68 69 67 63 61 59 57 54 50 46 46 49 53 58 61 64 66 68 70 72 73 74 75 75 75 75 75 76 76 78 79 79 80 80 81 82 81 80 78 76 75 73 71 68 64 60 58 58 58
52 52 53 54 58 60 57 54 56 58 59 59 58 57 55 54 55 58 60 63 65 66 67 67 68 69 69 68 68 69 69 69 68 67 67 68 69 70 70 68 65 63 61 59 58 55 53 52 54 57 59 62 65 67 69 72 74 75 76 76 76 76 76 77 78 81 82 83 82 82 83 83 82 81 80 79 77 75 73 70 67 64 61 59 58
54 54 54 55 56 56 54 57 61 62 61 61 60 59 57 55 56 58 60 63 65 66 67 67 68 69 69 69 69 69 70 69 68 67 67 69 70 72 72 72 70 68 66 66 66 66 64 61 61 61 60 60 61 62 65 69 72 74 76 77 77 77 78 78 80 82 85 85 84 82 83 84 82 81 79 78 76 74 72 70 68 66 63 59 57
57 57 57 56 55 55 58 61 63 62 61 62 62 60 59 57 57 59 61 63 65 66 67 67 68 68 69 70 70 70 70 70 69 68 68 70 71 73 74 75 75 74 73 72 72 73 72 69 68 67 66 64 63 63 63 65 67 70 72 74 75 76 77 78 79 82 84 85 84 81 81 82 80 77 76 75 74 73 71 70 69 67 64 58 54
59 59 59 59 57 59 62 63 62 62 62 62 62 61 60 59 58 60 62 64 65 66 67 67 68 69 69 70 70 71 70 70 70 70 70 72 73 75 75 76 77 78 79 78 77 78 77 75 72 70 69 67 66 66 66 66 67 68 70 71 72 73 73 75 76 79 82 84 82 79 78 80 79 76 74 74 74 73 71 70 69 67 63 57 53
61 62 62 62 61 61 63 63 62 62 61 61 62 62 61 60 60 61 64 65 66 67 68 68 69 70 71 71 71 71 71 71 72 73 74 75 76 77 78 78 79 80 81 81 80 80 80 77 74 71 69 67 66 66 67 67 68 69 70 71 73 73 74 75 76 78 81 83 81 78 77 79 79 76 74 74 74 72 71 69 68 64 60 55 51
64 65 65 65 65 64 64 65 64 63 62 62 63 64 64 63 62 64 66 67 68 69 69 70 71 71 72 72 72 72 71 72 75 77 77 78 79 80 80 81 81 81 82 82 82 82 81 78 74 70 68 67 66 66 67 67 68 69 70 71 72 74 74 75 76 78 80 82 82 79 77 78 78 77 75 74 72 71 68 66 64 61 56 52 50
67 68 68 68 68 67 67 67 66 66 64 64 64 66 67 66 66 67 68 69 70 71 72 73 73 73 73 73 72 72 73 75 78 80 80 80 81 82 82 82 82 82 82 82 83 83 81 76 72 69 67 66 66 66 66 67 67 68 69 69 71 72 73 74 77 79 81 83 82 79 76 76 77 76 74 72 69 67 64 62 60 56 52 49 48
69 70 70 70 69 70 69 69 69 69 68 66 66 68 68 69 70 71 71 72 73 74 75 76 76 75 75 74 73 74 76 79 80 80 82 83 83 83 83 82 82 82 82 83 83 82 79 74 70 68 67 67 68 67 67 68 68 68 69 70 72 73 74 76 78 81 82 84 84 81 77 75 74 73 70 67 64 62 60 59 55 52 49 46 45
72 72 72 72 70 70 70 70 71 71 69 68 69 70 70 71 72 73 74 75 75 76 77 77 77 77 77 76 76 77 79 80 81 82 83 84 84 85 84 84 83 83 83 83 82 79 76 72 70 69 69 69 70 70 70 70 71 71 71 73 75 77 77 78 80 82 82 83 83 80 74 71 71 70 66 62 59 58 57 56 52 48 45 43 42
74 73 73 73 71 69 70 71 72 72 71 72 73 73 72 73 74 75 76 76 76 77 78 79 79 79 78 78 79 80 81 81 83 85 85 86 86 86 85 85 84 84 84 82 79 76 73 71 70 71 71 71 72 72 72 73 74 74 75 76 78 79 80 79 80 79 78 79 78 74 68 66 68 67 61 56 55 54 53 51 49 46 42 39 39
78 76 74 72 71 70 71 72 73 73 73 74 75 74 74 75 75 76 77 77 78 79 79 80 80 80 80 80 81 81 82 83 85 86 87 88 87 87 86 86 85 83 82 79 76 74 73 73 73 73 73 73 73 74 75 76 77 77 77 78 79 80 79 78 76 74 72 73 72 67 63 62 64 62 56 49 49 50 49 46 45 43 39 36 38
Wind_Direction
52 51 49 49 50 46 40 28 19 17 16 14 12 14 14 11 11 13 17 22 24 25 29 33 33 33 35 40 42 41 38 35 30 29 31 34 36 32 358 270 254 255 258 260 263 263 262 258 253 248 248 250 251 245 242 249 255 248 240 240 247 257 260 259 256 248 242 237 237 240 239 235 229 220 214 214 221 232 237 241 244 191 188 186 147
43 37 29 25 23 16 10 3 358 357 355 356 360 6 10 9 9 10 14 21 24 26 31 38 40 39 41 43 43 41 37 33 29 27 28 30 34 36 33 11 280 258 257 258 259 260 260 261 259 257 253 251 253 253 249 252 254 249 240 238 244 254 257 254 255 253 248 244 238 239 242 243 241 234 226 221 222 231 238 242 242 224 204 202 200
15 8 4 4 3 357 354 351 349 350 350 349 350 360 8 7 5 7 10 17 24 26 30 39 45 45 44 41 37 33 29 27 25 23 24 26 30 32 34 33 14 299 266 260 261 261 261 261 263 262 260 257 255 253 251 252 252 249 244 242 245 253 257 249 248 253 250 248 244 239 240 243 246 244 237 230 226 229 234 243 249 246 233 217 212
355 356 358 357 357 352 350 349 347 348 347 344 343 354 3 1 359 3 7 12 19 23 26 33 42 44 41 35 30 26 25 24 22 21 21 22 25 28 31 34 32 18 328 273 262 262 263 261 260 261 260 259 257 253 250 250 250 248 248 248 247 252 256 246 242 252 253 253 254 247 241 241 244 247 246 240 234 231 232 237 246 253 254 244 233
359 358 359 358 357 355 352 348 346 345 343 340 337 346 354 353 353 358 2 6 12 17 19 22 30 35 34 30 26 24 23 22 21 21 20 20 21 25 28 30 31 30 21 340 278 263 261 262 261 259 259 258 258 255 250 248 247 247 249 249 247 250 254 246 238 242 248 253 260 256 246 242 243 245 249 249 243 238 236 236 239 248 256 258 251
8 1 359 360 360 357 352 347 344 342 342 339 334 335 340 342 346 352 356 360 5 8 10 12 17 21 23 22 21 20 19 18 19 19 18 18 19 22 26 28 28 29 29 21 349 289 264 260 260 260 259 258 258 256 252 250 246 245 248 249 246 246 249 249 244 241 243 249 256 256 253 250 246 245 246 249 250 246 242 239 239 242 249 257 259
12 6 2 1 360 356 351 346 344 344 343 340 334 331 332 334 341 347 350 353 357 360 1 4 8 10 11 11 12 13 13 13 14 15 15 15 16 18 22 27 28 26 26 28 21 1 308 269 260 258 259 257 257 257 254 252 248 243 243 246 246 246 244 245 246 245 242 246 252 256 258 260 255 251 249 248 249 250 247 243 241 241 245 250 255
12 8 5 4 1 358 355 351 349 348 346 343 338 335 332 331 337 342 346 349 352 354 355 357 0 3 3 360 359 2 4 7 9 10 10 11 12 14 17 21 26 27 24 24 24 20 8 327 274 259 256 255 255 255 254 252 249 241 239 243 245 246 246 243 242 242 243 245 248 251 257 264 264 259 255 252 249 249 250 248 244 241 242 245 248
8 7 7 6 4 2 1 359 356 352 351 347 343 342 341 338 339 340 344 349 350 351 352 354 354 356 358 356 351 350 354 358 2 4 5 6 6 9 12 14 19 24 25 23 20 19 18 11 345 284 259 253 252 253 252 250 247 241 237 241 244 245 247 246 242 240 241 243 244 246 249 259 264 262 256 253 251 249 248 250 248 244 241 241 242
4 5 6 6 6 5 3 3 360 357 358 355 349 349 350 349 347 345 346 350 352 352 353 353 353 351 352 353 350 345 343 348 352 356 359 0 1 3 6 9 12 16 20 22 21 17 16 16 12 356 302 261 251 250 250 248 246 241 238 239 242 243 244 246 246 243 240 241 244 246 245 250 257 261 257 253 253 251 249 248 249 247 243 240 240
1 2 4 4 4 3 2 2 1 1 4 4 358 355 355 355 354 351 350 351 354 356 356 355 353 350 349 349 349 345 339 338 342 347 350 353 356 357 359 3 6 8 11 16 20 20 17 14 11 9 1 322 266 251 248 247 246 243 239 238 239 240 239 240 244 244 242 241 244 246 243 245 250 255 258 256 254 252 248 247 247 247 245 240 240
357 358 360 360 358 357 358 359 2 4 7 8 1 357 357 356 355 352 351 352 355 357 358 356 353 349 347 345 345 344 339 335 335 338 341 345 348 351 353 357 1 4 4 7 13 17 18 15 10 7 6 1 336 276 251 246 246 245 241 238 237 237 236 236 238 240 242 243 243 242 241 242 246 250 255 256 255 253 249 246 244 245 245 242 239
352 353 354 354 351 350 350 354 1 5 7 7 359 356 358 356 353 352 352 352 353 355 356 356 354 350 347 344 342 341 339 337 334 334 334 336 340 343 346 349 354 359 1 1 4 9 13 15 13 9 5 3 360 344 288 253 245 244 243 240 239 237 234 234 236 236 237 242 243 241 239 240 243 246 248 251 254 255 252 247 243 242 243 242 239
348 347 347 348 347 344 343 346 353 356 355 353 346 347 353 352 349 350 350 349 349 352 353 353 353 350 346 343 341 339 338 337 336 334 331 331 333 335 338 341 346 353 357 357 358 1 5 9 12 11 7 5 2 358 347 303 257 245 243 243 242 239 235 232 234 235 234 237 241 241 239 239 241 243 243 246 250 254 256 251 245 241 241 241 240
345 344 345 347 345 342 340 341 343 342 339 336 328 330 339 344 346 346 346 345 347 349 350 351 350 348 345 342 340 338 336 336 335 334 332 329 328 329 331 333 337 345 351 353 354 356 358 1 5 9 10 8 4 359 356 348 315 263 246 243 242 241 240 234 233 234 233 234 237 238 238 238 239 240 241 243 246 251 256 255 250 243 240 240 239
344 344 344 344 342 339 338 337 335 329 325 324 320 319 325 333 339 342 342 342 344 345 347 347 347 346 344 341 338 335 334 334 334 334 333 330 327 325 325 326 328 334 343 348 349 350 352 354 358 2 6 10 9 4 359 355 350 323 269 248 242 240 241 240 237 236 233 232 234 235 236 238 239 239 239 242 244 248 252 255 253 247 241 239 239
343 343 340 338 337 336 335 335 333 327 319 314 312 313 317 323 331 337 339 339 338 340 342 343 342 341 340 339 336 333 331 333 333 333 332 330 328 326 324 322 322 324 332 340 344 345 347 348 351 355 358 3 9 9 4 357 354 349 328 281 252 243 241 241 242 241 237 233 231 232 235 237 239 240 241 242 244 246 249 252 253 248 243 240 238
338 336 334 333 332 330 328 328 329 328 322 314 308 310 313 319 326 332 334 335 334 336 338 339 337 336 335 335 334 331 329 330 330 331 332 330 328 327 324 322 320 319 320 328 336 340 342 342 344 347 351 355 359 5 8 2 357 353 346 329 292 259 246 242 242 242 242 237 232 230 232 235 238 241 243 243 244 245 247 250 252 248 242 241 239
332 330 330 329 328 325 324 323 323 323 320 314 310 310 314 319 324 328 331 331 332 333 335 334 333 332 331 330 331 329 326 326 327 329 330 329 327 325 324 322 321 319 315 316 324 331 336 338 338 340 344 348 350 356 3 5 1 356 350 342 328 299 265 250 244 242 242 241 236 232 230 232 236 240 244 244 244 245 246 248 251 249 243 240 240
329 327 326 326 325 324 324 323 324 322 317 313 312 314 318 321 323 324 326 326 325 326 329 330 329 328 327 326 327 326 324 323 324 325 326 328 327 325 323 321 321 321 316 310 313 321 327 331 333 334 337 340 343 346 352 357 358 355 352 346 337 326 303 272 254 246 243 243 240 236 232 231 233 238 243 245 245 245 245 246 247 248 245 241 240
327 325 325 325 325 325 324 325 326 325 321 316 317 319 320 320 320 321 322 320 316 315 320 324 325 323 323 323 324 323 322 322 322 323 323 325 326 324 322 322 320 321 320 314 308 310 318 322 326 330 332 334 336 339 342 346 350 348 348 347 340 334 324 305 278 258 248 244 242 239 235 232 231 234 238 243 246 246 245 245 245 246 245 243 241
324 323 324 324 326 327 326 326 327 326 322 317 315 316 317 317 317 319 320 317 312 309 312 317 319 319 318 320 322 321 319 319 320 321 320 321 324 323 321 321 320 319 321 320 310 304 308 313 317 323 327 329 330 332 334 336 339 340 340 339 331 328 326 319 303 280 261 250 245 242 239 235 233 233 234 238 243 246 245 245 245 245 245 244 242
320 321 322 322 324 326 324 323 324 324 322 318 313 312 313 317 318 318 319 317 311 307 308 311 314 315 315 316 319 319 318 318 318 317 317 318 320 321 319 318 318 316 317 318 314 307 304 304 308 314 319 324 325 326 327 329 330 331 332 331 325 314 310 313 311 296 278 262 252 246 243 240 236 235 235 236 238 242 245 245 244 244 245 245 243
317 319 321 321 321 321 319 317 319 322 324 323 319 315 315 319 321 320 319 317 311 307 307 309 311 312 312 313 315 316 316 317 316 314 313 314 316 316 315 315 315 313 313 315 314 311 306 300 301 305 310 317 321 321 322 323 324 324 325 327 325 315 299 294 302 301 287 273 262 254 248 244 241 237 237 237 236 238 241 244 244 243 243 244 243
317 318 320 320 317 315 313 312 315 320 323 322 320 318 318 320 322 322 321 318 313 310 309 309 310 310 310 313 314 314 314 316 316 313 311 312 313 311 309 311 312 310 311 313 312 310 309 302 298 299 303 310 316 318 317 317 316 316 317 320 321 319 308 292 288 290 285 276 267 260 254 249 245 242 239 239 239 237 238 241 244 243 242 242 243
315 318 319 318 315 311 309 309 312 318 320 319 317 316 316 317 319 320 320 320 316 313 312 311 311 312 314 316 316 314 314 315 315 313 311 310 309 307 306 308 310 309 309 311 311 308 307 303 299 297 299 303 309 314 313 311 309 309 310 312 315 317 315 307 296 286 275 272 269 263 258 253 249 247 243 241 241 240 239 238 241 243 242 241 241
313 317 318 317 315 311 308 308 311 316 319 317 313 312 312 313 315 318 320 321 320 318 316 315 314 316 319 320 318 315 313 313 314 312 310 308 306 304 304 308 310 310 308 309 310 307 303 301 299 297 296 297 302 308 310 307 304 304 305 305 307 310 313 311 306 297 277 266 268 267 263 258 253 250 248 244 242 242 242 239 238 240 242 242 241
311 314 316 316 316 314 311 311 313 315 317 317 313 310 311 314 317 320 320 321 322 321 320 318 317 318 320 320 318 314 313 313 313 311 308 306 305 304 305 308 308 307 307 307 307 306 302 300 299 298 293 292 296 301 304 303 298 296 299 301 301 303 306 308 306 303 293 276 267 264 264 263 259 254 252 248 245 244 244 242 240 238 239 241 241
309 312 314 315 316 315 313 313 315 316 317 317 314 313 315 318 321 321 320 320 322 322 320 319 318 318 318 317 316 313 312 311 310 308 306 305 305 305 305 306 306 305 306 306 305 305 303 299 297 297 293 289 291 295 298 298 292 289 292 294 294 295 299 302 304 303 301 293 281 271 265 263 262 259 255 252 248 245 244 244 243 240 237 238 240
309 311 312 313 313 314 314 314 316 317 317 316 313 313 315 317 318 318 318 319 321 321 320 319 318 317 317 315 314 311 309 308 306 304 303 303 303 304 304 304 304 303 303 303 303 303 302 298 293 293 292 290 290 292 294 294 289 286 287 288 288 289 291 296 299 300 300 299 295 287 276 268 267 261 254 253 251 247 245 245 245 243 240 236 237
308 310 311 312 313 314 315 315 316 316 315 313 312 313 314 315 315 315 317 320 322 323 323 321 319 317 316 313 310 308 306 304 304 304 304 304 304 305 305 304 303 302 301 301 300 299 298 297 293 290 289 288 289 290 291 291 289 286 286 286 284 284 286 289 293 295 296 297 297 295 289 284 280 271 260 255 252 249 248 247 246 245 243 239 236
309 310 310 312 313 314 315 315 316 316 315 314 314 314 314 314 313 314 317 321 323 324 323 321 319 317 315 313 311 309 308 308 308 308 308 308 308 308 307 307 306 304 302 299 297 295 294 294 292 288 285 284 286 288 288 288 287 287 287 286 284 282 283 285 288 289 290 292 294 295 295 294 291 285 274 263 256 252 251 249 247 246 246 243 238
312 311 311 312 313 313 314 315 315 315 315 315 315 315 313 312 312 315 319 322 323 323 322 321 319 317 316 314 313 312 312 312 312 311 311 312 312 312 312 311 309 307 305 301 297 294 292 292 289 285 282 282 284 285 284 285 285 286 287 286 284 282 282 283 285 286 286 288 290 292 294 296 296 293 288 278 267 259 254 252 249 248 247 245 241
312 311 311 312 312 313 314 315 315 315 314 315 316 316 314 312 314 317 320 322 322 322 321 320 319 318 316 315 314 314 315 315 315 314 315 316 316 316 315 314 312 309 307 302 297 293 291 290 287 284 282 282 282 281 282 284 285 285 285 285 284 283 282 282 282 282 284 286 286 288 292 295 297 296 293 288 280 271 264 259 254 251 250 248 244
309 309 310 310 312 313 315 316 315 313 313 313 315 315 314 314 315 317 319 320 320 319 319 319 319 318 318 317 316 316 316 317 316 316 317 317 317 316 316 315 314 312 307 301 296 292 291 289 287 285 283 280 279 278 280 283 284 284 284 284 285 284 283 282 282 282 283 283 283 285 288 292 295 296 294 292 287 281 275 270 264 258 254 250 246
308 308 309 310 311 313 314 315 313 312 311 312 313 313 313 313 313 315 316 316 316 317 317 318 319 319 318 317 317 317 317 316 316 316 317 317 318 317 318 318 317 314 309 303 296 290 288 288 287 285 282 279 278 279 280 282 283 283 282 282 284 284 283 284 284 283 281 281 282 285 287 289 292 293 293 293 290 286 282 278 273 267 260 253 247
308 308 309 310 312 313 313 313 312 310 311 312 312 312 311 311 311 312 313 314 314 315 316 318 318 318 317 317 317 317 316 316 316 317 317 318 317 317 317 317 316 314 310 305 298 290 286 285 284 281 279 278 278 279 279 280 280 280 280 280 282 283 283 285 284 281 281 282 284 286 287 288 290 290 292 293 292 290 287 284 279 273 265 256 247
308 309 310 311 313 313 314 314 311 309 311 313 313 312 310 309 309 310 310 312 313 314 315 317 317 317 317 317 317 316 315 315 316 316 316 316 315 315 316 317 315 314 312 310 303 295 289 285 282 279 278 277 277 277 277 277 278 278 278 280 281 282 283 284 283 282 283 284 284 285 286 287 288 289 291 292 293 292 289 286 282 276 268 259 250
306 307 310 311 312 313 315 315 313 309 311 313 312 312 311 310 309 309 309 310 312 313 315 316 317 317 317 317 316 315 315 314 315 315 315 315 315 316 318 319 318 317 316 316 312 302 294 289 285 282 280 279 279 278 278 278 279 279 280 280 281 282 284 285 284 283 283 283 284 284 284 284 286 288 290 292 292 292 290 288 284 278 270 263 254
304 306 309 310 312 313 314 315 313 311 312 313 312 312 312 311 309 308 308 309 311 312 314 316 316 316 316 316 315 314 314 314 314 314 314 314 315 317 318 319 319 319 318 318 314 306 299 295 291 286 284 282 280 280 279 279 280 280 280 281 281 282 283 283 283 283 282 283 283 283 283 285 286 288 290 291 291 291 289 288 284 280 274 266 258
303 306 307 308 311 313 312 313 314 314 313 312 311 311 311 310 308 307 308 309 311 313 315 316 315 315 315 314 313 313 313 313 313 313 313 314 316 317 317 318 318 318 317 316 313 308 303 300 297 294 290 286 283 281 280 279 279 280 280 281 282 282 281 281 281 281 282 282 283 283 284 286 287 288 289 289 289 289 288 286 284 281 276 270 262
303 305 306 308 312 311 310 312 313 313 312 310 310 310 310 309 308 307 309 310 311 313 315 315 315 314 314 313 312 312 312 312 312 312 313 314 315 316 316 316 316 316 315 314 313 312 309 306 304 303 301 296 290 286 283 281 281 281 280 281 281 281 281 281 281 281 282 282 283 284 285 286 286 287 287 288 288 287 286 285 284 281 278 273 266
303 304 305 308 309 308 307 309 311 310 309 308 308 309 309 309 308 308 309 310 312 314 315 315 315 314 313 313 312 312 312 311 311 312 312 313 313 314 314 314 315 315 315 315 315 314 313 312 310 309 306 302 298 294 290 288 286 284 283 282 281 281 281 281 281 282 282 283 284 285 285 286 287 287 287 288 287 286 285 284 283 281 279 275 269
302 303 305 306 307 306 306 308 309 309 308 307 307 308 308 309 309 308 309 311 312 314 315 316 315 314 313 312 312 311 311 310 310 310 311 311 311 312 312 312 313 313 314 314 314 314 314 313 311 310 307 304 301 297 295 293 290 288 287 286 285 284 284 284 284 284 284 284 285 287 287 288 289 289 289 288 286 285 284 283 282 281 280 276 269
302 303 304 305 306 306 306 306 307 308 307 306 307 308 309 309 309 308 309 311 312 314 316 316 315 314 313 312 312 311 310 310 310 310 310 310 311 311 311 311 311 311 311 312 312 313 312 311 310 309 306 304 301 297 295 293 292 290 289 289 289 288 288 288 287 286 286 286 288 289 289 289 290 291 290 288 286 284 283 282 282 281 280 275 267
302 303 304 305 306 306 305 305 306 307 307 306 307 309 310 310 310 309 310 312 313 315 316 315 314 314 313 312 312 311 310 311 311 311 311 311 311 311 311 310 310 310 310 311 311 311 310 310 309 308 306 304 302 299 297 296 294 293 292 291 290 290 290 289 288 287 287 288 289 290 290 290 290 290 288 286 285 283 283 282 282 281 277 271 263
301 302 303 304 305 305 305 306 306 307 308 308 309 310 311 312 312 312 312 313 314 316 316 315 315 314 313 313 313 312 311 311 311 311 311 311 311 311 311 310 310 310 310 310 310 310 309 309 309 308 306 305 303 302 300 298 296 295 294 293 291 290 290 290 289 289 289 290 291 292 291 290 289 288 286 285 284 284 283 282 281 278 273 266 259
301 302 303 304 304 305 306 306 307 308 310 310 310 311 312 313 313 313 314 314 316 317 316 315 315 314 313 312 312 310 310 310 310 311 311 311 311 311 311 311 311 311 310 310 310 310 310 310 309 308 307 305 304 302 301 299 297 296 295 293 292 291 291 290 290 290 291 292 293 293 292 291 289 287 286 285 285 285 284 282 279 274 269 262 256
300 302 303 304 304 306 307 308 308 310 311 312 312 312 313 313 313 314 315 315 316 316 315 314 313 312 312 311 310 309 309 310 310 310 311 311 311 311 311 311 311 311 311 311 311 311 311 310 309 308 307 306 304 302 300 298 297 295 294 292 291 291 291 291 290 291 292 293 292 291 292 291 289 287 286 285 285 284 282 280 276 270 265 260 254
300 302 303 304 305 307 308 309 310 311 312 312 312 313 313 313 313 314 314 314 314 313 313 312 312 312 311 311 309 309 310 310 310 311 311 311 311 312 312 312 312 312 312 312 312 312 311 310 309 308 307 306 304 302 300 298 296 295 294 293 292 292 293 293 293 293 293 292 290 290 291 289 287 285 285 285 285 283 279 276 273 267 261 257 251
300 301 303 304 305 307 309 310 311 311 312 312 312 312 312 312 312 312 312 312 312 312 312 311 311 311 310 309 309 309 309 309 310 311 311 311 312 312 313 313 312 312 312 312 312 312 310 309 308 307 306 305 304 302 300 298 297 296 296 296 295 296 297 297 297 296 294 291 290 290 290 287 285 284 285 285 283 280 276 271 268 265 259 253 248
Height
10981 10980 10979 10978 10977 10976 10975 10973 10973 10972 10971 10970 10969 10968 10967 10965 10963 10961 10959 10956 10953 10951 10948 10945 10944 10942 10941 10939 10938 10937 10936 10935 10934 10931 10928 10925 10922 10920 10918 10918 10918 10919 10919 10921 10922 10922 10923 10923 10924 10925 10926 10926 10926 10926 10927 10927 10927 10928 10928 10927 10928 10928 10929 10929 10929 10929 10930 10930 10930 10930 10930 10930 10930 10930 10930 10930 10931 10932 10932 10933 10933 10933 10933 10933 10932
10982 10981 10980 10979 10978 10977 10975 10974 10973 10972 10972 10970 10969 10968 10966 10964 10963 10961 10959 10957 10954 10952 10950 10947 10945 10944 10942 10941 10940 10939 10938 10936 10934 10932 10929 10927 10923 10920 10918 10917 10916 10916 10917 10919 10919 10920 10921 10921 10922 10923 10924 10925 10925 10925 10926 10926 10926 10926 10926 10926 10927 10928 10928 10928 10928 10928 10929 10929 10929 10929 10930 10930 10930 10930 10929 10929 10930 10931 10932 10932 10932 10933 10933 10932 10932
10983 10982 10981 10979 10978 10977 10976 10975 10974 10973 10971 10970 10969 10967 10965 10964 10963 10962 10960 10958 10955 10954 10952 10950 10947 10946 10945 10944 10943 10941 10939 10937 10935 10933 10931 10928 10925 10922 10918 10916 10915 10914 10915 10916 10917 10918 10919 10919 10920 10920 10921 10922 10923 10923 10924 10924 10924 10924 10924 10925 10926 10927 10927 10927 10927 10927 10927 10928 10928 10928 10928 10929 10929 10929 10929 10929 10929 10930 10931 10932 10932 10932 10932 10932 10932
10983 10982 10981 10979 10978 10977 10976 10975 10974 10972 10971 10970 10969 10967 10965 10964 10964 10962 10961 10959 10957 10956 10955 10953 10950 10948 10947 10945 10944 10942 10940 10938 10936 10934 10931 10929 10927 10923 10920 10917 10915 10913 10913 10914 10914 10915 10916 10917 10917 10917 10918 10919 10920 10921 10921 10922 10922 10922 10923 10925 10925 10925 10926 10926 10926 10926 10926 10926 10927 10927 10927 10927 10928 10929 10929 10928 10928 10929 10929 10931 10931 10932 10932 10932 10931
10982 10981 10980 10979 10978 10977 10976 10975 10974 10972 10971 10970 10968 10967 10966 10965 10964 10963 10962 10960 10958 10957 10956 10955 10953 10950 10948 10946 10945 10943 10941 10939 10936 10934 10931 10930 10928 10925 10922 10919 10916 10914 10912 10912 10911 10912 10912 10913 10914 10914 10915 10916 10917 10918 10918 10919 10919 10920 10922 10923 10923 10924 10925 10925 10924 10924 10924 10925 10925 10925 10925 10926 10927 10927 10928 10928 10928 10928 10928 10929 10930 10931 10932 10932 10931
10982 10981 10980 10979 10977 10977 10976 10975 10974 10972 10970 10969 10968 10967 10966 10965 10964 10963 10962 10960 10958 10957 10956 10955 10954 10952 10949 10947 10945 10943 10941 10939 10936 10934 10932 10930 10928 10926 10924 10921 10918 10915 10913 10911 10910 10909 10909 10909 10910 10911 10912 10913 10913 10914 10915 10916 10916 10917 10919 10920 10921 10922 10923 10923 10923 10922 10922 10923 10923 10924 10924 10924 10925 10926 10927 10927 10927 10928 10928 10928 10929 10930 10931 10931 10931
10982 10981 10980 10979 10977 10976 10975 10974 10973 10971 10970 10968 10967 10966 10966 10965 10963 10962 10961 10960 10958 10957 10956 10955 10954 10952 10950 10948 10946 10943 10941 10939 10936 10934 10932 10930 10928 10927 10925 10923 10920 10917 10914 10912 10910 10908 10907 10906 10906 10907 10908 10910 10910 10911 10912 10913 10914 10915 10916 10917 10918 10919 10919 10920 10920 10920 10920 10921 10921 10922 10923 10923 10923 10924 10925 10926 10926 10926 10927 10927 10928 10929 10930 10930 10931
10983 10982 10980 10979 10977 10976 10974 10973 10971 10970 10968 10967 10967 10966 10965 10964 10963 10962 10961 10960 10959 10957 10955 10954 10953 10952 10950 10948 10946 10944 10941 10939 10937 10934 10932 10930 10928 10926 10925 10923 10921 10918 10915 10912 10910 10908 10906 10904 10903 10903 10904 10906 10907 10907 10908 10910 10911 10912 10913 10914 10915 10915 10916 10916 10917 10918 10918 10919 10920 10920 10921 10922 10922 10922 10923 10924 10925 10925 10926 10926 10927 10928 10928 10929 10930
10983 10981 10980 10978 10976 10975 10973 10972 10970 10969 10967 10966 10966 10965 10964 10964 10963 10962 10961 10960 10958 10956 10954 10953 10951 10950 10949 10948 10946 10944 10942 10939 10937 10934 10932 10930 10928 10926 10924 10922 10920 10919 10916 10913 10910 10907 10905 10903 10902 10900 10900 10901 10902 10903 10905 10906 10906 10907 10909 10910 10911 10911 10912 10913 10914 10915 10916 10917 10918 10918 10919 10920 10920 10921 10921 10922 10923 10924 10924 10925 10926 10926 10927 10928 10929
10982 10981 10979 10977 10975 10974 10972 10971 10969 10968 10966 10966 10965 10965 10964 10963 10962 10962 10961 10960 10958 10956 10954 10952 10950 10949 10948 10946 10945 10943 10941 10939 10937 10935 10932 10930 10927 10925 10923 10921 10919 10917 10916 10913 10910 10907 10905 10902 10900 10899 10898 10897 10897 10899 10900 10902 10902 10904 10906 10907 10907 10907 10908 10911 10912 10913 10914 10914 10915 10915 10916 10917 10918 10919 10919 10920 10921 10922 10923 10923 10924 10925 10926 10927 10927
10981 10980 10979 10977 10975 10973 10972 10970 10969 10967 10966 10966 10965 10965 10964 10963 10961 10961 10960 10959 10957 10956 10953 10951 10949 10948 10946 10945 10943 10942 10941 10939 10937 10934 10932 10930 10927 10925 10922 10920 10918 10916 10914 10912 10910 10907 10905 10902 10899 10897 10896 10894 10894 10894 10895 10897 10898 10900 10903 10904 10904 10904 10906 10908 10910 10910 10910 10911 10912 10912 10913 10914 10915 10916 10917 10918 10918 10919 10920 10921 10922 10923 10924 10925 10926
10981 10980 10978 10977 10975 10973 10972 10971 10968 10967 10966 10965 10965 10964 10963 10961 10960 10960 10959 10958 10956 10955 10953 10951 10949 10947 10945 10944 10942 10941 10939 10938 10936 10934 10932 10930 10927 10925 10922 10920 10918 10915 10913 10911 10909 10907 10904 10902 10899 10896 10894 10892 10891 10890 10891 10892 10894 10896 10898 10900 10901 10902 10903 10905 10906 10907 10907 10907 10908 10909 10910 10911 10912 10913 10914 10915 10916 10916 10917 10919 10920 10921 10922 10923 10924
10981 10979 10978 10976 10975 10973 10972 10971 10969 10967 10965 10965 10964 10963 10962 10960 10959 10958 10957 10956 10955 10953 10951 10950 10948 10946 10944 10942 10941 10939 10938 10936 10935 10933 10931 10929 10926 10924 10922 10919 10917 10915 10912 10910 10908 10906 10904 10902 10899 10897 10894 10891 10889 10888 10887 10887 10889 10891 10893 10895 10897 10898 10900 10901 10902 10903 10904 10904 10905 10906 10907 10908 10909 10910 10911 10912 10913 10914 10915 10916 10917 10918 10920 10921 10922
10981 10979 10978 10976 10974 10972 10971 10970 10968 10966 10964 10964 10963 10962 10961 10959 10958 10956 10955 10954 10953 10952 10950 10948 10946 10945 10943 10941 10939 10938 10936 10935 10933 10931 10929 10927 10925 10923 10921 10918 10916 10914 10912 10910 10907 10905 10903 10901 10899 10897 10894 10891 10889 10887 10885 10884 10885 10886 10888 10890 10892 10894 10896 10897 10898 10899 10900 10901 10902 10902 10903 10905 10906 10907 10908 10909 10910 10911 10912 10913 10914 10916 10917 10918 10919
10981 10979 10977 10975 10973 10972 10970 10968 10967 10965 10964 10962 10961 10960 10959 10958 10956 10955 10953 10952 10951 10950 10948 10947 10945 10943 10941 10940 10938 10936 10934 10932 10930 10929 10928 10925 10923 10922 10920 10917 10915 10913 10912 10909 10907 10904 10902 10900 10899 10897 10895 10892 10889 10886 10884 10883 10882 10882 10883 10885 10887 10889 10891 10892 10894 10896 10897 10897 10898 10899 10900 10901 10902 10904 10905 10905 10906 10908 10909 10910 10911 10913 10914 10916 10917
10980 10979 10976 10975 10973 10971 10969 10968 10966 10965 10963 10961 10960 10959 10958 10956 10955 10953 10952 10950 10949 10948 10946 10945 10943 10941 10939 10938 10936 10934 10932 10930 10928 10926 10925 10923 10921 10920 10918 10916 10914 10912 10910 10908 10906 10904 10902 10900 10898 10896 10895 10893 10890 10888 10885 10882 10881 10880 10880 10881 10883 10885 10886 10888 10889 10891 10892 10894 10894 10895 10896 10897 10898 10899 10901 10902 10903 10904 10906 10907 10908 10909 10911 10913 10914
10979 10978 10976 10974 10972 10970 10968 10966 10965 10963 10962 10960 10959 10958 10957 10955 10954 10952 10950 10949 10947 10946 10945 10943 10941 10939 10937 10936 10934 10932 10930 10928 10926 10924 10922 10921 10919 10917 10916 10914 10912 10910 10908 10907 10905 10903 10901 10899 10897 10895 10893 10892 10890 10889 10886 10883 10881 10879 10878 10878 10879 10880 10882 10883 10884 10886 10888 10889 10890 10891 10892 10894 10894 10895 10897 10898 10899 10901 10902 10904 10905 10906 10908 10909 10911
10978 10976 10974 10972 10970 10968 10966 10964 10963 10961 10960 10959 10958 10957 10956 10954 10953 10951 10950 10948 10946 10944 10943 10940 10938 10937 10935 10933 10932 10930 10928 10926 10924 10922 10920 10918 10917 10915 10913 10912 10911 10909 10907 10905 10904 10902 10900 10898 10896 10894 10892 10890 10889 10888 10886 10884 10882 10879 10877 10876 10876 10876 10877 10878 10880 10881 10883 10884 10885 10886 10888 10890 10891 10892 10893 10894 10895 10896 10898 10900 10901 10903 10904 10906 10907
10976 10974 10972 10970 10969 10967 10965 10963 10962 10960 10959 10958 10956 10955 10954 10953 10952 10950 10949 10947 10945 10943 10941 10938 10936 10934 10933 10931 10929 10928 10926 10924 10922 10920 10918 10916 10914 10912 10911 10909 10908 10907 10906 10904 10902 10901 10900 10898 10895 10893 10892 10890 10887 10886 10885 10883 10882 10880 10878 10875 10873 10873 10873 10874 10875 10876 10878 10879 10881 10882 10884 10885 10887 10888 10889 10890 10891 10893 10894 10896 10897 10899 10900 10902 10903
10974 10972 10970 10968 10966 10965 10964 10962 10961 10959 10958 10957 10955 10954 10953 10952 10950 10948 10947 10945 10944 10941 10939 10937 10934 10932 10930 10928 10927 10925 10923 10921 10919 10917 10916 10914 10912 10909 10908 10906 10905 10904 10903 10902 10900 10899 10898 10896 10894 10892 10890 10889 10886 10884 10883 10882 10881 10879 10878 10875 10873 10871 10870 10870 10871 10872 10873 10874 10876 10878 10879 10881 10882 10884 10885 10886 10887 10889 10890 10892 10893 10895 10896 10898 10899
10972 10970 10968 10966 10964 10963 10962 10961 10960 10958 10957 10956 10954 10953 10951 10950 10948 10946 10944 10942 10940 10939 10936 10934 10932 10930 10928 10926 10924 10922 10920 10918 10917 10915 10913 10911 10910 10907 10905 10903 10901 10900 10900 10899 10897 10895 10894 10893 10892 10890 10888 10886 10884 10883 10881 10880 10879 10878 10877 10876 10874 10871 10869 10868 10867 10867 10868 10869 10870 10872 10874 10875 10877 10879 10880 10881 10882 10884 10886 10887 10889 10890 10892 10893 10895
10969 10967 10965 10964 10962 10961 10960 10959 10959 10958 10956 10955 10953 10951 10950 10948 10946 10944 10942 10940 10938 10936 10934 10932 10930 10928 10926 10924 10921 10919 10917 10915 10914 10912 10910 10908 10906 10904 10902 10900 10898 10897 10896 10896 10894 10892 10890 10889 10888 10887 10885 10883 10881 10879 10878 10876 10875 10875 10875 10875 10873 10872 10870 10867 10865 10864 10863 10864 10865 10866 10868 10870 10872 10873 10875 10876 10877 10878 10880 10882 10884 10885 10887 10888 10890
10967 10965 10963 10962 10961 10960 10959 10958 10957 10956 10955 10953 10951 10949 10948 10946 10944 10942 10939 10937 10935 10933 10931 10930 10928 10925 10923 10921 10919 10916 10915 10913 10911 10909 10907 10905 10903 10901 10899 10897 10895 10893 10892 10892 10890 10888 10887 10885 10883 10883 10882 10880 10877 10875 10873 10871 10871 10870 10870 10870 10870 10870 10868 10867 10864 10862 10860 10860 10860 10861 10862 10864 10866 10867 10869 10870 10872 10873 10874 10876 10878 10880 10881 10883 10884
10965 10964 10962 10961 10960 10958 10957 10956 10955 10954 10953 10951 10949 10947 10945 10943 10941 10939 10937 10935 10933 10931 10929 10927 10924 10922 10920 10918 10916 10914 10911 10910 10908 10905 10903 10901 10899 10897 10895 10893 10892 10890 10888 10887 10886 10884 10883 10881 10878 10877 10877 10876 10874 10871 10868 10866 10865 10864 10864 10864 10864 10864 10864 10864 10862 10860 10858 10856 10855 10855 10856 10857 10859 10860 10862 10863 10865 10867 10868 10869 10871 10873 10875 10877 10878
10964 10962 10961 10960 10958 10957 10955 10954 10953 10952 10950 10949 10947 10945 10942 10939 10937 10935 10933 10931 10929 10927 10925 10923 10920 10918 10916 10914 10912 10910 10908 10906 10904 10902 10899 10897 10895 10893 10891 10890 10888 10886 10883 10882 10881 10880 10878 10877 10874 10872 10871 10871 10870 10867 10865 10863 10861 10859 10858 10858 10857 10857 10858 10858 10858 10857 10855 10853 10852 10851 10851 10851 10852 10853 10854 10856 10858 10860 10862 10863 10865 10866 10868 10870 10872
10962 10961 10960 10958 10957 10955 10953 10951 10950 10949 10947 10945 10943 10942 10939 10936 10934 10932 10929 10927 10925 10923 10920 10918 10916 10915 10913 10910 10908 10906 10904 10902 10899 10897 10894 10892 10891 10889 10887 10886 10884 10882 10879 10877 10875 10874 10873 10872 10870 10868 10865 10865 10865 10863 10861 10859 10857 10855 10853 10852 10851 10851 10851 10851 10851 10851 10851 10850 10848 10847 10847 10846 10846 10847 10847 10848 10850 10852 10854 10856 10857 10859 10861 10863 10865
10961 10959 10958 10956 10954 10953 10951 10949 10947 10945 10944 10941 10939 10938 10936 10934 10931 10929 10926 10923 10921 10918 10916 10913 10911 10910 10908 10906 10904 10901 10899 10897 10894 10892 10889 10888 10886 10884 10882 10881 10879 10877 10875 10872 10870 10869 10868 10866 10865 10863 10860 10859 10860 10859 10857 10855 10853 10851 10849 10847 10845 10844 10844 10844 10844 10844 10845 10844 10844 10843 10842 10842 10841 10841 10841 10841 10842 10844 10846 10847 10849 10851 10853 10855 10857
10959 10958 10956 10954 10952 10950 10948 10946 10943 10941 10939 10937 10934 10933 10932 10930 10927 10925 10922 10919 10917 10914 10912 10910 10908 10905 10903 10901 10899 10896 10893 10891 10889 10886 10884 10882 10881 10879 10877 10875 10873 10871 10869 10867 10864 10863 10863 10861 10859 10859 10856 10853 10854 10855 10854 10852 10850 10847 10845 10843 10840 10838 10838 10837 10837 10836 10837 10837 10837 10837 10836 10836 10836 10836 10836 10835 10836 10837 10837 10838 10840 10842 10844 10847 10849
10957 10955 10953 10952 10950 10947 10945 10942 10939 10937 10935 10932 10930 10928 10926 10925 10922 10920 10917 10915 10913 10911 10908 10906 10904 10901 10899 10897 10894 10892 10889 10886 10884 10882 10880 10878 10876 10874 10872 10869 10867 10865 10863 10861 10858 10857 10857 10855 10854 10853 10851 10849 10848 10848 10848 10848 10846 10843 10841 10839 10836 10833 10832 10831 10830 10829 10829 10829 10829 10829 10829 10829 10830 10830 10830 10830 10830 10829 10829 10829 10830 10832 10835 10837 10840
10954 10952 10951 10949 10947 10944 10941 10938 10935 10933 10931 10928 10926 10924 10922 10920 10918 10915 10913 10911 10910 10908 10905 10902 10899 10896 10894 10892 10889 10886 10884 10882 10880 10878 10876 10874 10871 10868 10866 10863 10861 10859 10857 10854 10851 10850 10851 10849 10848 10847 10845 10843 10842 10841 10840 10840 10840 10838 10835 10834 10832 10830 10827 10825 10823 10822 10820 10820 10820 10820 10821 10821 10822 10822 10823 10823 10823 10822 10821 10821 10821 10822 10824 10827 10830
10952 10950 10948 10945 10943 10940 10937 10935 10932 10930 10927 10924 10922 10919 10917 10916 10914 10912 10909 10906 10904 10902 10901 10898 10894 10891 10889 10887 10884 10881 10879 10877 10875 10873 10871 10868 10865 10862 10859 10856 10854 10852 10850 10848 10845 10844 10844 10843 10841 10840 10840 10838 10836 10835 10833 10832 10832 10831 10829 10827 10826 10824 10822 10820 10818 10816 10813 10812 10811 10811 10811 10812 10813 10813 10814 10815 10814 10813 10813 10812 10812 10813 10814 10816 10820
10948 10946 10944 10941 10939 10936 10933 10931 10928 10926 10923 10920 10917 10914 10912 10911 10909 10907 10905 10901 10898 10896 10894 10892 10889 10886 10883 10881 10879 10877 10874 10871 10868 10865 10863 10860 10858 10854 10851 10849 10847 10845 10843 10841 10838 10837 10837 10836 10833 10833 10832 10831 10830 10829 10827 10825 10823 10823 10822 10821 10818 10817 10815 10813 10812 10809 10807 10805 10803 10802 10801 10801 10802 10803 10803 10804 10804 10804 10803 10803 10803 10803 10804 10805 10808
10944 10942 10940 10937 10935 10933 10930 10927 10924 10921 10918 10915 10913 10910 10908 10906 10904 10902 10900 10897 10893 10890 10888 10885 10883 10880 10877 10875 10873 10871 10868 10866 10863 10859 10856 10853 10850 10846 10843 10840 10838 10836 10834 10832 10831 10829 10829 10828 10827 10825 10824 10824 10823 10823 10821 10819 10816 10815 10814 10812 10811 10809 10807 10806 10804 10801 10799 10797 10795 10792 10791 10791 10791 10791 10792 10793 10793 10793 10792 10793 10793 10793 10794 10795 10797
10940 10938 10936 10934 10932 10930 10927 10924 10920 10916 10913 10910 10908 10905 10903 10901 10899 10896 10894 10891 10889 10886 10883 10880 10877 10874 10871 10868 10865 10863 10860 10858 10855 10852 10849 10846 10842 10838 10835 10832 10829 10827 10825 10824 10823 10821 10821 10820 10819 10818 10817 10817 10816 10814 10812 10810 10808 10806 10804 10802 10802 10801 10799 10797 10795 10793 10790 10789 10786 10783 10781 10781 10780 10780 10780 10780 10780 10781 10781 10782 10782 10782 10783 10783 10785
10936 10934 10932 10930 10928 10926 10923 10919 10915 10911 10908 10906 10903 10901 10898 10896 10893 10891 10888 10886 10884 10882 10880 10877 10873 10869 10865 10862 10859 10856 10852 10849 10846 10844 10841 10838 10835 10831 10828 10825 10822 10820 10818 10817 10815 10814 10812 10811 10810 10810 10809 10808 10807 10804 10802 10801 10798 10796 10793 10791 10790 10790 10789 10787 10785 10783 10781 10779 10777 10774 10772 10770 10769 10768 10768 10767 10768 10768 10769 10769 10770 10770 10770 10770 10772
10932 10930 10928 10926 10924 10922 10919 10915 10911 10907 10904 10901 10899 10897 10894 10891 10889 10886 10884 10882 10879 10877 10875 10872 10868 10864 10861 10857 10853 10849 10845 10842 10839 10836 10833 10830 10827 10823 10820 10817 10814 10812 10811 10809 10808 10806 10805 10803 10801 10801 10800 10798 10796 10794 10793 10792 10790 10786 10783 10781 10779 10778 10777 10775 10774 10772 10770 10768 10766 10764 10762 10761 10759 10757 10755 10755 10755 10756 10756 10756 10755 10756 10756 10756 10757
10927 10925 10923 10921 10919 10916 10914 10911 10907 10904 10900 10897 10895 10893 10890 10887 10884 10881 10879 10876 10874 10871 10869 10866 10863 10859 10855 10851 10847 10843 10839 10835 10831 10828 10824 10821 10818 10816 10813 10811 10808 10806 10804 10801 10800 10799 10797 10796 10793 10791 10790 10788 10787 10784 10782 10781 10779 10776 10773 10772 10770 10768 10766 10764 10763 10761 10758 10756 10755 10753 10751 10749 10747 10745 10744 10743 10742 10742 10742 10741 10740 10741 10741 10742 10743
10923 10921 10918 10915 10913 10910 10908 10906 10902 10899 10896 10894 10891 10889 10887 10883 10880 10877 10874 10871 10868 10865 10863 10860 10857 10854 10850 10845 10841 10837 10833 10828 10824 10821 10818 10815 10812 10809 10807 10804 10801 10798 10796 10794 10792 10791 10790 10788 10786 10783 10781 10779 10777 10774 10772 10770 10768 10765 10763 10761 10759 10757 10755 10753 10751 10749 10746 10744 10743 10742 10740 10738 10735 10732 10731 10730 10730 10729 10727 10726 10725 10726 10727 10727 10728
10918 10917 10914 10910 10907 10905 10902 10899 10897 10894 10892 10889 10887 10885 10883 10879 10876 10872 10868 10865 10863 10860 10856 10853 10850 10846 10842 10838 10834 10831 10826 10822 10818 10814 10812 10809 10805 10802 10799 10797 10794 10790 10788 10786 10784 10783 10782 10781 10779 10776 10773 10771 10768 10765 10762 10760 10758 10755 10753 10752 10749 10745 10743 10741 10739 10736 10733 10732 10732 10730 10728 10726 10723 10720 10718 10716 10716 10715 10713 10711 10711 10711 10711 10712 10713
10915 10913 10910 10907 10903 10900 10896 10894 10891 10889 10887 10883 10881 10880 10878 10876 10872 10868 10864 10860 10857 10854 10850 10847 10842 10838 10834 10831 10827 10823 10820 10816 10812 10808 10804 10801 10798 10794 10792 10789 10787 10784 10781 10779 10777 10775 10774 10773 10771 10768 10765 10762 10758 10756 10754 10750 10747 10745 10742 10741 10739 10736 10732 10730 10727 10723 10720 10719 10719 10718 10715 10712 10709 10707 10706 10704 10702 10700 10699 10698 10697 10696 10695 10695 10697
10911 10910 10907 10904 10900 10894 10890 10889 10886 10883 10880 10877 10875 10874 10872 10871 10867 10864 10860 10855 10852 10848 10845 10841 10836 10831 10827 10824 10820 10816 10812 10809 10806 10802 10798 10794 10790 10786 10783 10781 10779 10776 10774 10772 10769 10767 10766 10764 10761 10758 10755 10751 10747 10745 10744 10740 10736 10734 10731 10728 10727 10724 10721 10719 10714 10709 10706 10705 10705 10704 10701 10698 10696 10695 10693 10691 10688 10685 10684 10683 10682 10682 10681 10680 10682
10905 10904 10902 10900 10897 10890 10885 10884 10882 10878 10875 10872 10869 10868 10867 10865 10862 10859 10855 10851 10846 10843 10839 10835 10830 10825 10821 10816 10813 10809 10805 10801 10799 10796 10791 10787 10783 10779 10776 10773 10770 10768 10765 10762 10759 10755 10753 10752 10748 10744 10742 10738 10734 10732 10730 10727 10724 10722 10719 10716 10715 10712 10709 10707 10703 10696 10691 10689 10691 10692 10689 10683 10682 10683 10680 10677 10675 10671 10669 10668 10667 10666 10666 10667 10668
10898 10897 10896 10895 10892 10886 10881 10881 10879 10876 10872 10867 10864 10863 10862 10860 10857 10853 10849 10845 10841 10837 10833 10829 10824 10819 10814 10809 10805 10801 10797 10794 10791 10789 10785 10781 10776 10772 10769 10765 10761 10758 10755 10752 10748 10743 10740 10739 10736 10731 10727 10724 10721 10718 10715 10714 10712 10709 10706 10703 10701 10699 10697 10694 10691 10684 10676 10673 10676 10679 10676 10669 10667 10670 10669 10664 10661 10657 10654 10654 10652 10650 10651 10653 10655
10891 10891 10890 10889 10887 10883 10880 10878 10876 10873 10869 10864 10859 10856 10855 10853 10850 10846 10842 10839 10835 10831 10827 10822 10817 10813 10808 10803 10799 10795 10791 10787 10784 10782 10778 10774 10769 10765 10761 10757 10753 10748 10745 10742 10739 10734 10730 10728 10725 10720 10715 10711 10709 10705 10702 10701 10699 10695 10692 10690 10687 10686 10683 10680 10677 10672 10663 10658 10660 10664 10663 10654 10651 10654 10655 10651 10646 10643 10641 10640 10637 10636 10637 10639 10641
10884 10883 10882 10881 10881 10879 10876 10873 10871 10869 10864 10859 10853 10849 10847 10846 10844 10839 10835 10832 10828 10825 10820 10816 10811 10806 10802 10797 10793 10789 10785 10781 10778 10775 10771 10766 10761 10757 10752 10748 10744 10740 10735 10732 10729 10727 10723 10718 10714 10709 10703 10700 10698 10694 10690 10689 10687 10683 10680 10677 10673 10670 10668 10666 10663 10657 10650 10644 10645 10649 10649 10642 10637 10639 10641 10637 10631 10629 10628 10626 10624 10624 10625 10626 10628
10877 10875 10874 10873 10872 10871 10869 10865 10863 10861 10858 10852 10846 10841 10839 10838 10836 10832 10827 10824 10820 10817 10813 10809 10804 10800 10795 10791 10787 10783 10778 10774 10770 10766 10762 10758 10753 10748 10743 10739 10735 10731 10727 10722 10718 10716 10712 10708 10704 10698 10693 10689 10687 10683 10678 10676 10674 10670 10668 10665 10660 10657 10655 10652 10648 10643 10637 10631 10630 10634 10636 10631 10625 10625 10626 10622 10617 10615 10615 10613 10611 10611 10612 10613 10615
10871 10869 10867 10866 10864 10861 10859 10856 10853 10852 10849 10845 10839 10833 10830 10828 10826 10823 10819 10815 10811 10808 10805 10800 10796 10792 10788 10784 10780 10775 10770 10767 10762 10757 10753 10749 10745 10741 10736 10731 10727 10722 10718 10713 10709 10704 10700 10696 10692 10687 10683 10678 10675 10672 10668 10665 10662 10659 10656 10653 10649 10645 10643 10640 10634 10629 10624 10618 10614 10617 10622 10620 10613 10611 10611 10608 10604 10603 10602 10600 10599 10599 10600 10601 10604
10865 10862 10860 10858 10856 10852 10849 10847 10844 10841 10840 10836 10831 10827 10823 10819 10816 10813 10809 10805 10802 10799 10795 10791 10788 10784 10780 10776 10771 10767 10764 10760 10755 10750 10745 10741 10737 10732 10728 10723 10718 10713 10708 10703 10698 10693 10688 10684 10679 10676 10673 10668 10665 10661 10658 10654 10651 10648 10645 10641 10637 10633 10632 10628 10622 10616 10611 10605 10599 10599 10605 10605 10598 10595 10596 10594 10592 10592 10590 10586 10586 10587 10588 10591 10594
10858 10856 10852 10850 10847 10844 10840 10837 10834 10831 10829 10827 10822 10819 10816 10812 10808 10804 10800 10797 10794 10791 10787 10783 10779 10776 10772 10767 10763 10760 10756 10752 10747 10742 10737 10733 10728 10723 10718 10714 10708 10703 10697 10692 10687 10682 10676 10672 10668 10665 10662 10658 10654 10650 10647 10643 10640 10637 10635 10630 10625 10622 10620 10617 10613 10607 10601 10595 10587 10586 10591 10591 10583 10579 10582 10583 10582 10581 10578 10574 10575 10576 10578 10581 10585
10850 10848 10845 10841 10839 10836 10832 10829 10826 10823 10821 10817 10813 10811 10808 10804 10800 10797 10793 10791 10788 10784 10780 10776 10771 10767 10763 10758 10754 10750 10746 10741 10736 10732 10727 10723 10718 10713 10708 10703 10697 10692 10687 10681 10676 10671 10666 10662 10658 10655 10651 10647 10643 10638 10635 10631 10627 10625 10623 10619 10613 10610 10608 10605 10601 10597 10592 10583 10576 10576 10579 10577 10570 10567 10570 10574 10572 10569 10567 10565 10565 10566 10569 10574 10577
10839 10839 10838 10833 10830 10828 10825 10821 10817 10814 10813 10809 10805 10802 10800 10796 10794 10791 10788 10785 10781 10777 10773 10768 10763 10759 10754 10749 10745 10742 10738 10732 10726 10722 10717 10712 10708 10703 10698 10693 10687 10682 10677 10672 10667 10662 10657 10653 10649 10645 10642 10638 10633 10628 10623 10618 10614 10611 10609 10605 10601 10597 10595 10591 10587 10584 10580 10571 10566 10567 10568 10564 10559 10557 10560 10565 10564 10558 10555 10557 10556 10557 10562 10567 10569